Location: Crescent
(42.8242°N, 73.7329°W)
Time: 17:48:45
(UTC+00:00)

SR - Pass Details

Date: 21 February 2026
Orbit: 572 x 848 km, 66.7° (Epoch: 8 March)

Event Time Altitude Azimuth Distance (km) Brightness Sun altitude
Rises 17:00:40 0° 331° (NNW) 3,089 ? 36.8°
Reaches altitude 10° 17:02:57 10° 335° (NNW) 2,211 ? 36.8°
Maximum altitude 17:08:00 65° 57° (ENE) 838 ? 36.8°
Drops below altitude 10° 17:13:25 10° 139° (SE) 2,370 ? 36.8°
Sets 17:15:56 0° 142° (SE) 3,329 ? 36.8°
